This demonstration page uses our WeatherBlox Daily Observations layout. Learn more.

Left ArrowRight Arrow

39.01783, -85.05884

Hourly Observations for February 12, 2017

Temp ( °F °C ) Dew Point ( °F °C ) Humidity (%) Winds ( mph kmh ) Pressure ( in mb ) Visibility ( mi km ) Precip ( " mm )
12:15 am 00:15 Cloudy 59 15 58 14.4 96 96 S 9 15 29.83 1010 7 11 0.00 0.03
12:31 am 00:31 Cloudy 59 15 58 14.4 96 96 S 12 19 29.83 1010 7 11 0.00 0.03
12:38 am 00:38 Cloudy 59 15 57 14 94 94 S 10 17 29.83 1010 7 11 0.00 0.00
12:52 am 00:52 Cloudy 59 15 58 14.4 96 96 S 9 15 29.80 1009 7 11 0.00 0.03
12:59 am 00:59 Cloudy 59 15 58 14.4 96 96 S 10 17 29.83 1010 7 11 0.00 0.00
1:28 am 01:28 Cloudy 59 15 58 14.4 96 96 S 7 11 29.80 1009 7 11 0.00 0.00
1:52 am 01:52 Cloudy with Light Rain 60 15.6 58 14.4 93 93 SSW 7 11 29.78 1008 5 8 0.01 0.25
2:49 am 02:49 Cloudy with Drizzle 61 16 59 15 94 94 SSW 7 11 29.74 1007 7 11 0.00 0.03
2:52 am 02:52 Cloudy with Light Rain 60 15.6 59 15 96 96 SSW 7 11 29.76 1008 5 8 0.00 0.03
3:52 am 03:52 Cloudy with Heavy Rain 61 16.1 60 15.6 97 97 SW 6 9 29.74 1007 4 6 0.11 2.79
3:55 am 03:55 Cloudy with Heavy Rain 61 16.1 60 15.6 97 97 SW 5 7 29.74 1007 3 4 0.04 1.02
3:57 am 03:57 Cloudy with Heavy Rain 60 15.6 60 15.6 100 100 SW 6 9 29.74 1007 2 2 0.06 1.52
4:06 am 04:06 Cloudy with Rain 61 16.1 60 15.6 97 97 SSW 8 13 29.74 1007 2 3 0.09 2.29
4:09 am 04:09 Cloudy with Heavy Rain 61 16.1 60 15.6 97 97 SSW 10 17 29.71 1006 3 5 0.14 3.56
4:11 am 04:11 Cloudy with Heavy Rain 61 16.1 60 15.6 97 97 SW 8 13 29.71 1006 2 3 0.15 3.81
4:34 am 04:34 Cloudy with Light Rain 61 16 61 16 100 100 WSW 6 9 29.74 1007 7 11 0.00 0.00
4:52 am 04:52 Cloudy 62 16.7 60 15.6 93 93 WSW 13 20 29.74 1007 8 13 0.22 5.59
5:52 am 05:52 Cloudy 62 16.7 60 15.6 93 93 WSW 8 13 29.75 1008 8 13 0.01 0.25
6:52 am 06:52 Cloudy 62 16.7 60 15.6 93 93 W 10 17 29.78 1008 7 11 0.00 0.03
7:33 am 07:33 Cloudy with Mist and Fog 62 16.7 60 15.6 93 93 W 13 20 29.77 1008 5 8 0.00 0.00
7:52 am 07:52 Cloudy with Mist and Fog 61 16.1 60 15.6 97 97 W 12 19 29.80 1009 5 8 0.00 0.00
8:52 am 08:52 Cloudy 60 15.6 57 13.9 90 90 WNW 17 28 29.86 1011 7 11 0.00 0.00
9:28 am 09:28 Cloudy 54 12 52 11 94 94 WNW 14 22 29.91 1013 10 16 0.00 0.00
9:44 am 09:44 Mostly Cloudy 54 12.2 52 11.1 93 93 WNW 9 15 29.91 1013 10 16 0.00 0.00
9:52 am 09:52 Mostly Cloudy 55 12.8 52 11.1 90 90 WNW 13 20 29.90 1012 10 16 0.00 0.00
10:39 am 10:39 Cloudy 51 10.6 48 8.9 89 89 WNW 15 24 29.97 1015 10 16 0.00 0.00
10:52 am 10:52 Cloudy 50 10 47 8.3 89 89 NW 18 30 29.96 1015 8 13 0.00 0.00
11:52 am 11:52 Cloudy 49 9.4 45 7.2 86 86 NW 15 24 30.00 1016 7 11 0.00 0.00
12:52 pm 12:52 Mostly Cloudy 50 10 45 7.2 83 83 WNW 14 22 30.02 1017 7 11 0.00 0.00
1:52 pm 13:52 Partly Cloudy 53 11.7 44 6.7 72 72 WNW 15 24 30.01 1016 9 14 0.00 0.00
2:52 pm 14:52 Partly Cloudy 53 11.7 41 5 64 64 WNW 16 26 30.03 1017 10 16 0.00 0.00
3:52 pm 15:52 Partly Cloudy 54 12.2 36 2.2 51 51 WNW 28 44 30.04 1017 10 16 0.00 0.00
4:52 pm 16:52 Partly Cloudy 53 11.7 36 2.2 52 52 WNW 18 30 30.07 1018 10 16 0.00 0.00
5:52 pm 17:52 Partly Cloudy 51 10.6 32 0 48 48 WNW 20 31 30.09 1019 10 16 0.00 0.00
6:52 pm 18:52 Mostly Clear 48 8.9 29 -1.7 48 48 WNW 22 35 30.14 1021 10 16 0.00 0.00
7:52 pm 19:52 Mostly Clear 44 6.7 26 -3.3 49 49 WNW 17 28 30.19 1022 10 16 0.00 0.00
8:52 pm 20:52 Mostly Clear 42 5.6 25 -3.9 51 51 WNW 17 28 30.21 1023 10 16 0.00 0.00
9:52 pm 21:52 Mostly Clear 41 5 24 -4.4 51 51 WNW 17 28 30.24 1024 10 16 0.00 0.00
10:52 pm 22:52 Clear 39 3.9 23 -5 53 53 NW 15 24 30.26 1025 10 16 0.00 0.00
11:52 pm 23:52 Clear 37 2.8 21 -6.1 52 52 NW 16 26 30.29 1026 10 16 0.00 0.00

Powered by AerisWeather